Date String (YYYY-MM-DD hh:mm:ss) UTC,Instrument flags,Ambient pressure (hPa),Sample flow (lpm),Bypass flow (lpm),Sample temperature (°C),Ambient temperature (°C),ASC tube jacket temperature (°C),LED temperature (°C),Box temperature (°C),Sample RH (%),Span deviation,Mass concentration (μg/m³),Mass concentration (μg/m³),Mass concentration (μg/m³)
DateTimeUTC,F1_M11,P_M11,Q1_M11,Q2_M11,T1_M11,T2_M11,T3_M11,T4_M11,T5_M11,U1_M11,ZSPAN_M11,X2_M11,X0_M11,X1_M11
2023-03-01 13:00:00,,0815.8,5.02,0.00,22.4,21.4,00.0,31.1,24.1,05.5,0000.0,0001.47,0002.95,0001.07
2023-03-01 13:01:00,,0815.8,5.00,0.00,22.4,21.1,00.0,31.1,24.1,05.5,0000.0,0001.47,0002.41,0001.07
2023-03-01 13:02:00,,0815.8,5.00,0.00,22.4,20.9,00.0,31.1,24.0,05.5,0000.0,0001.46,0002.40,0001.06
2023-03-01 13:03:00,,0815.8,5.00,0.00,22.3,20.7,00.0,31.1,24.0,05.5,0000.0,0001.45,0002.36,0001.06
2023-03-01 13:04:00,,0815.9,5.00,0.00,22.3,20.6,00.0,31.1,24.0,05.5,0000.0,0001.44,0002.40,0001.07
2023-03-01 13:05:00,,0815.9,5.01,0.00,22.3,20.5,00.0,31.1,23.9,05.5,0000.0,0001.37,0002.17,0001.07
2023-03-01 13:06:00,,0816.0,5.00,0.00,22.3,20.4,00.0,31.1,23.9,05.5,0000.0,0001.39,0002.24,0001.07
2023-03-01 13:07:00,,0815.9,4.99,0.00,22.2,20.4,00.0,31.0,23.9,05.4,0000.0,0001.41,0002.38,0001.06
2023-03-01 13:08:00,,0815.9,5.00,0.00,22.2,20.4,00.0,31.0,23.9,05.4,0000.0,0001.45,0002.60,0001.06
2023-03-01 13:09:00,,0815.9,5.02,0.00,22.3,21.5,00.0,31.0,24.1,05.4,0000.0,0001.46,0002.67,0001.05
2023-03-01 13:10:00,,0815.9,4.97,0.00,22.4,22.5,00.0,31.0,24.3,05.4,0000.0,0001.51,0003.52,0001.04
2023-03-01 13:11:00,,0815.9,4.98,0.00,22.5,22.9,00.0,31.0,24.4,05.4,0000.0,0001.53,0004.62,0001.04
2023-03-01 13:12:00,,0815.9,4.98,0.00,22.5,22.4,00.0,31.1,24.3,05.4,0000.0,0001.57,0004.80,0001.03
2023-03-01 13:13:00,,0815.9,5.01,0.00,22.5,22.0,00.0,31.1,24.3,05.4,0000.0,0001.61,0004.89,0001.03
2023-03-01 13:14:00,,0815.9,5.01,0.00,22.5,21.7,00.0,31.1,24.2,05.4,0000.0,0001.63,0004.95,0001.02
2023-03-01 13:15:00,,0815.9,5.00,0.00,22.4,21.4,00.0,31.1,24.1,05.3,0000.0,0001.64,0005.08,0001.01
2023-03-01 13:16:00,,0815.9,5.00,0.00,22.4,21.1,00.0,31.1,24.1,05.3,0000.0,0001.62,0005.65,0000.99
2023-03-01 13:17:00,,0815.9,5.00,0.00,22.4,20.9,00.0,31.1,24.0,05.2,0000.0,0001.64,0005.86,0000.98
2023-03-01 13:18:00,,0815.9,5.00,0.00,22.3,20.8,00.0,31.1,24.0,05.2,0000.0,0001.67,0006.01,0000.97
2023-03-01 13:19:00,,0815.9,4.98,0.00,22.3,20.6,00.0,31.1,24.0,05.2,0000.0,0001.74,0006.17,0000.98
2023-03-01 13:20:00,,0815.9,5.00,0.00,22.3,20.5,00.0,31.1,23.9,05.2,0000.0,0001.86,0006.60,0000.97
2023-03-01 13:21:00,,0815.9,5.00,0.00,22.2,20.4,00.0,31.1,23.9,05.2,0000.0,0001.87,0006.87,0000.98
2023-03-01 13:22:00,,0815.8,5.02,0.00,22.2,20.4,00.0,31.0,23.8,05.2,0000.0,0001.86,0006.46,0000.98
2023-03-01 13:23:00,,0815.8,5.04,0.00,22.2,20.4,00.0,31.0,23.9,05.2,0000.0,0001.87,0007.51,0000.99
2023-03-01 13:24:00,,0815.9,5.03,0.00,22.2,21.4,00.0,31.0,24.1,05.2,0000.0,0001.95,0007.80,0001.00
2023-03-01 13:25:00,,0815.9,5.01,0.00,22.4,22.5,00.0,31.0,24.3,05.2,0000.0,0001.94,0008.23,0001.00
2023-03-01 13:26:00,,0816.0,5.00,0.00,22.5,22.9,00.0,31.0,24.5,05.1,0000.0,0001.97,0008.45,0000.99
2023-03-01 13:27:00,,0816.0,5.00,0.00,22.5,22.5,00.0,31.1,24.4,05.1,0000.0,0002.03,0008.38,0001.00
2023-03-01 13:28:00,,0815.9,4.97,0.00,22.5,22.0,00.0,31.1,24.3,05.1,0000.0,0002.10,0008.63,0001.00
2023-03-01 13:29:00,,0816.0,5.01,0.00,22.5,21.7,00.0,31.1,24.2,05.2,0000.0,0002.13,0009.01,0001.00
2023-03-01 13:30:00,,0815.9,5.00,0.00,22.4,21.4,00.0,31.1,24.1,05.1,0000.0,0002.10,0009.04,0000.99
2023-03-01 13:31:00,,0815.9,5.00,0.00,22.4,21.1,00.0,31.1,24.1,05.1,0000.0,0002.07,0008.98,0000.98
2023-03-01 13:32:00,,0815.9,5.00,0.00,22.4,20.9,00.0,31.1,24.0,05.1,0000.0,0002.04,0008.72,0000.97
2023-03-01 13:33:00,,0815.9,5.01,0.00,22.4,20.8,00.0,31.1,24.0,05.1,0000.0,0002.04,0008.37,0000.96
2023-03-01 13:34:00,,0815.9,5.00,0.00,22.3,20.6,00.0,31.1,24.0,05.1,0000.0,0002.01,0007.76,0000.96
2023-03-01 13:35:00,,0815.9,4.99,0.00,22.3,20.5,00.0,31.1,23.9,05.1,0000.0,0001.97,0007.60,0000.95
2023-03-01 13:36:00,,0815.9,5.03,0.00,22.3,20.4,00.0,31.1,23.9,05.2,0000.0,0002.02,0007.36,0000.95
2023-03-01 13:37:00,,0815.8,5.01,0.00,22.2,20.3,00.0,31.1,23.8,05.1,0000.0,0002.01,0007.11,0000.95
2023-03-01 13:38:00,,0815.8,5.01,0.00,22.2,21.0,00.0,31.0,24.0,05.1,0000.0,0001.99,0006.87,0000.94
2023-03-01 13:39:00,,0815.8,5.02,0.00,22.4,22.2,00.0,31.0,24.3,05.1,0000.0,0002.03,0006.52,0000.93
2023-03-01 13:40:00,,0815.8,4.99,0.00,22.5,23.0,00.0,31.0,24.5,05.0,0000.0,0002.07,0006.70,0000.93
2023-03-01 13:41:00,,0815.8,5.00,0.00,22.5,22.6,00.0,31.1,24.4,05.0,0000.0,0002.11,0007.61,0000.93
2023-03-01 13:42:00,,0815.8,5.01,0.00,22.5,22.1,00.0,31.1,24.3,05.0,0000.0,0002.20,0007.92,0000.94
2023-03-01 13:43:00,,0815.8,4.99,0.00,22.5,21.7,00.0,31.1,24.2,05.0,0000.0,0002.24,0008.03,0000.94
2023-03-01 13:44:00,,0815.8,5.00,0.00,22.5,21.3,00.0,31.1,24.1,05.0,0000.0,0002.23,0007.79,0000.93
2023-03-01 13:45:00,,0815.9,5.00,0.00,22.4,21.1,00.0,31.1,24.1,05.0,0000.0,0002.18,0007.68,0000.91
2023-03-01 13:46:00,,0815.9,5.01,0.00,22.4,20.8,00.0,31.1,24.0,04.9,0000.0,0002.19,0007.90,0000.90
2023-03-01 13:47:00,,0815.9,5.01,0.00,22.4,20.7,00.0,31.1,24.0,05.0,0000.0,0002.20,0009.38,0000.89
2023-03-01 13:48:00,,0815.8,5.00,0.00,22.3,20.5,00.0,31.1,24.0,04.9,0000.0,0002.18,0009.46,0000.88
2023-03-01 13:49:00,,0815.8,5.00,0.00,22.3,20.4,00.0,31.1,23.9,04.9,0000.0,0002.15,0009.70,0000.89
2023-03-01 13:50:00,,0815.9,5.01,0.00,22.2,20.4,00.0,31.1,23.9,04.9,0000.0,0002.07,0009.89,0000.90
2023-03-01 13:51:00,,0815.9,4.99,0.00,22.3,21.3,00.0,31.0,24.1,04.9,0000.0,0001.99,0010.35,0000.91
2023-03-01 13:52:00,,0815.9,5.01,0.00,22.4,22.4,00.0,31.0,24.3,04.9,0000.0,0001.93,0010.31,0000.90
2023-03-01 13:53:00,,0815.9,4.99,0.00,22.5,23.1,00.0,31.1,24.5,04.8,0000.0,0001.85,0010.29,0000.91
2023-03-01 13:54:00,,0815.8,5.00,0.00,22.5,22.5,00.0,31.1,24.4,04.8,0000.0,0001.79,0010.30,0000.91
2023-03-01 13:55:00,,0815.8,4.98,0.00,22.5,22.0,00.0,31.1,24.3,04.8,0000.0,0001.78,0010.24,0000.91
2023-03-01 13:56:00,,0815.8,5.00,0.00,22.5,21.6,00.0,31.2,24.2,04.8,0000.0,0001.80,0010.23,0000.92
2023-03-01 13:57:00,,0815.8,5.00,0.00,22.5,21.3,00.0,31.2,24.1,04.8,0000.0,0001.80,0010.15,0000.93
2023-03-01 13:58:00,,0815.8,4.99,0.00,22.4,21.1,00.0,31.1,24.1,04.8,0000.0,0001.80,0008.87,0000.94
2023-03-01 13:59:00,,0815.8,5.00,0.00,22.4,20.8,00.0,31.1,24.0,04.8,0000.0,0001.80,0008.49,0000.95
